Fitchburg, MA

8:28 AM EST on November 23, 2017 (GMT -0500)
Fitchburg Municipal

Weather History for KFIT - June, 2013

Change the Weather History Date:

Thursday, June 27, 2013

  Actual Average (KORH) Record (KORH)
Temperature  
Mean Temperature 68 °F -  
Max Temperature 72 °F 76 °F 93 °F (1901)
Min Temperature 64 °F 56 °F 46 °F (1940)
Cooling Degree Days 3    
Growing Degree Days 18 (Base 50)    
Moisture  
Dew Point 65 °F    
Average Humidity 92    
Maximum Humidity 100    
Minimum Humidity 81    
Precipitation  
Precipitation 0.05 in - - ()
Sea Level Pressure  
Sea Level Pressure 29.83 in    
Wind  
Wind Speed 3 mph (East)    
Max Wind Speed 7 mph    
Max Gust Speed -    
Visibility 4 miles    
Events Rain    
Averages and records for this station are not official NWS values.
T = Trace of Precipitation, MM = Missing Value Source: NWS Daily Summary

Daily Weather History Graph

Daily Weather History Graph

Search for Another Location

Airport or City:

Trip Planner

Search our weather history database for the weather conditions in past years. The results will help you decide how hot, cold, wet, or windy it might be!

Date:

Astronomy

Jun. 27, 2013 Rise Set
Actual Time 5:11 AM EDT 8:28 PM EDT
Civil Twilight 4:36 AM EDT 9:03 PM EDT
Nautical Twilight 3:51 AM EDT 9:48 PM EDT
Astronomical Twilight 2:56 AM EDT 10:43 PM EDT
Moon 11:16 PM EDT (6/27) 10:15 AM EDT (6/27)
Length of Visible Light 16h 26m
Length of Day
15h 17m
Waning Gibbous, 76% of the Moon is Illuminated
Jun 27
Waning Gibbous
Jun 30
Last Quarter
Jul 8
New
Jul 15
First Quarter
Jul 22
Full

Hourly Weather History & Observations

Time (EDT) Temp. Dew Point Humidity Pressure Visibility Wind Dir Wind Speed Gust Speed Precip Events Conditions
12:19 AM 71.6 °F 66.2 °F 83% 29.86 in 10.0 mi East 4.6 mph - N/A   Overcast
12:52 AM 70.0 °F 66.9 °F 90% 29.86 in 10.0 mi Calm Calm - N/A   Overcast
1:26 AM 69.8 °F 66.2 °F 88% 29.86 in 10.0 mi Calm Calm - N/A   Overcast
1:52 AM 70.0 °F 66.9 °F 90% 29.85 in 10.0 mi Calm Calm - N/A   Overcast
2:43 AM 69.8 °F 66.2 °F 88% 29.83 in 8.0 mi Calm Calm - N/A   Overcast
2:52 AM 69.1 °F 66.9 °F 93% 29.83 in 8.0 mi Calm Calm - N/A   Overcast
3:52 AM 70.0 °F 66.9 °F 90% 29.83 in 8.0 mi ESE 3.5 mph - N/A   Overcast
4:52 AM 69.1 °F 66.9 °F 93% 29.82 in 3.0 mi East 3.5 mph - N/A   Overcast
5:04 AM 68.0 °F 66.2 °F 94% 29.82 in 2.5 mi East 4.6 mph - N/A   Overcast
5:28 AM 66.2 °F 64.4 °F 94% 29.84 in 1.2 mi ENE 5.8 mph - N/A   Overcast
5:36 AM 66.2 °F 64.4 °F 94% 29.85 in 1.0 mi Variable 3.5 mph - N/A   Overcast
5:52 AM 66.0 °F 64.9 °F 96% 29.86 in 1.0 mi SE 3.5 mph - 0.01 in   Overcast
6:00 AM 66.2 °F 64.4 °F 94% 29.86 in 0.8 mi Calm Calm - 0.00 in Rain Light Rain
6:13 AM 66.2 °F 64.4 °F 94% 29.87 in 1.0 mi Calm Calm - 0.00 in Rain Light Rain
6:21 AM 66.2 °F 64.4 °F 94% 29.88 in 1.2 mi SE 3.5 mph - 0.00 in   Overcast
6:48 AM 64.4 °F 62.6 °F 94% 29.88 in 1.8 mi East 3.5 mph - 0.01 in   Overcast
6:52 AM 64.9 °F 63.0 °F 93% 29.87 in 2.0 mi East 3.5 mph - 0.01 in   Overcast
7:15 AM 64.4 °F 62.6 °F 94% 29.87 in 1.8 mi ENE 3.5 mph - N/A   Overcast
7:38 AM 64.4 °F 62.6 °F 94% 29.87 in 2.5 mi East 3.5 mph - N/A   Overcast
7:45 AM 64.4 °F 62.6 °F 94% 29.87 in 3.0 mi ENE 3.5 mph - N/A   Overcast
7:52 AM 64.9 °F 63.0 °F 93% 29.87 in 2.5 mi East 4.6 mph - N/A   Overcast
8:14 AM 64.4 °F 62.6 °F 94% 29.87 in 1.5 mi ESE 4.6 mph - N/A   Overcast
8:52 AM 64.9 °F 64.0 °F 97% 29.86 in 1.8 mi ESE 4.6 mph - 0.00 in   Overcast
9:52 AM 66.0 °F 64.0 °F 93% 29.86 in 2.0 mi Calm Calm - N/A   Overcast
10:05 AM 66.2 °F 64.4 °F 94% 29.86 in 4.0 mi Calm Calm - N/A   Overcast
10:52 AM 66.9 °F 64.0 °F 90% 29.86 in 4.0 mi Calm Calm - N/A   Overcast
11:40 AM 68.0 °F 64.4 °F 88% 29.85 in 5.0 mi Calm Calm - N/A   Overcast
11:52 AM 69.1 °F 64.9 °F 87% 29.86 in 6.0 mi Calm Calm - N/A   Overcast
12:52 PM 70.0 °F 66.0 °F 87% 29.84 in 7.0 mi SSE 3.5 mph - N/A   Overcast
1:52 PM 72.0 °F 66.0 °F 81% 29.82 in 8.0 mi NE 4.6 mph - N/A   Overcast
2:52 PM 72.0 °F 66.9 °F 84% 29.82 in 9.0 mi NE 4.6 mph - 0.00 in Rain Light Rain
3:49 PM 71.6 °F 66.2 °F 83% 29.81 in 7.0 mi NE 3.5 mph - 0.02 in   Overcast
3:52 PM 71.1 °F 66.9 °F 87% 29.81 in 7.0 mi NE 3.5 mph - 0.02 in   Overcast
4:52 PM 70.0 °F 66.9 °F 90% 29.80 in 5.0 mi ENE 5.8 mph - N/A   Overcast
5:52 PM 68.0 °F 66.0 °F 93% 29.80 in 5.0 mi East 6.9 mph - N/A   Overcast
6:42 PM 66.2 °F 64.4 °F 94% 29.80 in 6.0 mi East 6.9 mph - N/A   Overcast
6:52 PM 66.9 °F 64.9 °F 93% 29.80 in 5.0 mi ESE 4.6 mph - N/A   Overcast
7:07 PM 66.2 °F 64.4 °F 94% 29.80 in 1.8 mi East 5.8 mph - N/A   Overcast
7:34 PM 66.2 °F 64.4 °F 94% 29.80 in 3.0 mi ESE 5.8 mph - N/A   Overcast
7:52 PM 66.0 °F 64.0 °F 93% 29.81 in 4.0 mi East 4.6 mph - N/A   Overcast
8:52 PM 66.0 °F 64.0 °F 93% 29.80 in 3.0 mi East 3.5 mph - N/A   Overcast
9:29 PM 66.2 °F 64.4 °F 94% 29.81 in 2.5 mi NE 3.5 mph - 0.00 in Rain Light Rain
9:50 PM 64.4 °F 64.4 °F 100% 29.81 in 1.8 mi ENE 3.5 mph - 0.00 in   Overcast
9:52 PM 64.9 °F 64.0 °F 97% 29.81 in 2.0 mi NE 3.5 mph - 0.00 in   Overcast
10:04 PM 64.4 °F 64.4 °F 100% 29.80 in 1.5 mi ENE 4.6 mph - N/A   Overcast
10:41 PM 64.4 °F 64.4 °F 100% 29.79 in 2.0 mi NE 3.5 mph - N/A   Overcast
10:52 PM 64.9 °F 64.0 °F 97% 29.79 in 1.8 mi Variable 3.5 mph - N/A   Overcast
11:37 PM 64.4 °F 62.6 °F 94% 29.77 in 2.0 mi NE 3.5 mph - 0.01 in   Overcast
11:52 PM 64.0 °F 63.0 °F 96% 29.77 in 2.0 mi NE 4.6 mph - 0.01 in   Overcast